TimeMDT,TemperatureF,Dew PointF,Humidity,Sea Level PressureIn,VisibilityMPH,Wind Direction,Wind SpeedMPH,Gust SpeedMPH,PrecipitationIn,Events,Conditions,WindDirDegrees,DateUTC
12:53 AM,66.0,52.0,60,29.94,10.0,SE,4.6,-,N/A,,Partly Cloudy,140,2013-08-28 06:53:00
1:53 AM,64.9,52.0,63,29.94,10.0,Calm,Calm,-,N/A,,Partly Cloudy,0,2013-08-28 07:53:00
2:53 AM,63.0,51.1,65,29.95,10.0,Calm,Calm,-,N/A,,Partly Cloudy,0,2013-08-28 08:53:00
3:53 AM,64.9,52.0,63,29.94,10.0,WSW,4.6,-,N/A,,Partly Cloudy,250,2013-08-28 09:53:00
4:53 AM,64.9,52.0,63,29.94,10.0,Calm,Calm,-,N/A,,Clear,0,2013-08-28 10:53:00
5:53 AM,63.0,52.0,67,29.96,10.0,Calm,Calm,-,N/A,,Partly Cloudy,0,2013-08-28 11:53:00
6:53 AM,61.0,52.0,72,29.98,10.0,South,5.8,-,N/A,,Partly Cloudy,170,2013-08-28 12:53:00
7:53 AM,70.0,51.1,51,29.98,10.0,WSW,8.1,-,N/A,,Clear,240,2013-08-28 13:53:00
8:53 AM,73.9,51.1,45,29.99,10.0,West,8.1,-,N/A,,Clear,260,2013-08-28 14:53:00
9:53 AM,77.0,50.0,39,29.99,10.0,WSW,5.8,-,N/A,,Partly Cloudy,250,2013-08-28 15:53:00
10:53 AM,81.0,50.0,34,29.98,10.0,NW,5.8,-,N/A,,Scattered Clouds,320,2013-08-28 16:53:00
11:53 AM,84.0,48.9,29,29.97,10.0,Variable,3.5,-,N/A,,Scattered Clouds,0,2013-08-28 17:53:00
12:53 PM,86.0,46.0,25,29.95,10.0,South,4.6,-,N/A,,Scattered Clouds,170,2013-08-28 18:53:00
1:53 PM,88.0,44.1,22,29.93,10.0,Variable,4.6,-,N/A,,Scattered Clouds,0,2013-08-28 19:53:00
2:53 PM,89.1,43.0,20,29.92,10.0,Calm,Calm,-,N/A,,Scattered Clouds,0,2013-08-28 20:53:00
3:53 PM,90.0,39.0,17,29.89,10.0,Variable,3.5,-,N/A,,Mostly Cloudy,0,2013-08-28 21:53:00
4:53 PM,89.1,42.1,19,29.90,10.0,ESE,3.5,-,N/A,,Mostly Cloudy,110,2013-08-28 22:53:00
5:53 PM,87.1,41.0,20,29.92,10.0,North,9.2,-,N/A,,Mostly Cloudy,350,2013-08-28 23:53:00
6:53 PM,86.0,43.0,22,29.94,10.0,North,10.4,-,N/A,,Scattered Clouds,350,2013-08-29 00:53:00
7:53 PM,81.0,48.0,31,29.94,10.0,Variable,4.6,-,N/A,,Mostly Cloudy,0,2013-08-29 01:53:00
8:53 PM,80.1,46.9,31,29.96,10.0,Calm,Calm,-,N/A,,Mostly Cloudy,0,2013-08-29 02:53:00
9:53 PM,77.0,51.1,40,29.97,10.0,Calm,Calm,-,N/A,,Scattered Clouds,0,2013-08-29 03:53:00
10:53 PM,71.1,51.1,49,29.99,10.0,SE,3.5,-,N/A,,Mostly Cloudy,140,2013-08-29 04:53:00
11:53 PM,70.0,52.0,53,29.98,10.0,Calm,Calm,-,N/A,,Partly Cloudy,0,2013-08-29 05:53:00